432P/PanSTARRS (2021)

Japanese version
Home page
Updated on January 20, 2022

---------------------------------------------------------------------

* Profile

Designation 432P/2021 N4
Discovery Date July 8, 2021
Magnitude 22.3 mag
Discoverer Pan-STARRS 1 telescope (Haleakala)

* Orbital Elements

Epoch 2021 Aug. 14.0 TT = JDT 2459440.5                                         
T 2021 Aug. 30.63190 TT                                 Rudenko                 
q   2.3009643            (2000.0)            P               Q                  
n   0.18615847     Peri.  105.29919     +0.95070554     +0.27135550             
a   3.0377184      Node   239.16339     -0.30584523     +0.90038886             
e   0.2425353      Incl.   10.06667     +0.05116319     +0.34009718             
P   5.29                                                                        
From 27 observations 2016 Oct. 25-2021 Aug. 14, mean residual 0".3.             

* Magnitudes Graph

        m1 = 5.0 + 5 log d + 40 log r(t - 50)

---------------------------------------------------------------------

The orbital elements are published on M.P.E.C. 2021-Q96.
The magnitudes graphs are made with Comet for Windows.

---------------------------------------------------------------------

Copyright(C) Seiichi Yoshida (comet@aerith.net). All rights reserved.